Location: G�rlitz
(51.1670°N, 15.0000°E)
Time: 10:37:37
(UTC+01:00)

ARIANE 6 FM1 Upper Stage - Pass Details

Date: 20 February 2026
Orbit: 523 x 607 km, 62.0° (Epoch: 7 March)

Event Time Altitude Azimuth Distance (km) Brightness Sun altitude
Rises 18:37:28 0° 306° (NW) 2,660 7.0 -12.1°
Reaches altitude 10° 18:39:52 10° 294° (WNW) 1,768 6.3 -12.4°
Maximum altitude 18:43:14 27° 236° (SW) 1,035 4.7 -13.0°
Drops below altitude 10° 18:46:36 10° 178° (S) 1,770 5.2 -13.5°
Sets 18:49:01 0° 166° (SSE) 2,665 6.0 -13.9°
